KOSEN 1
1 49402U 21102H   25320.55889901  .00011781  00000-0  50202-3 0  9992
2 49402  97.3516   2.0006 0013479 234.2959 125.7025 15.23025058221613
HO-113
1 50466U 21131B   25320.82133733  .00001285  00000-0  41311-3 0  9990
2 50466  98.5068  49.3729 0004452  30.7221 329.4227 14.41062397204522
SNUGLITE 2
1 52899U 22065F   25320.62150726  .00002256  00000-0  44206-3 0  9993
2 52899  98.1902 101.3061 0006954 339.5884  20.5039 14.63732529179895
UmKA 1 (RS40S)
1 57172U 23091G   25320.76899830  .00011230  00000-0  55877-3 0  9991
2 57172  97.5387  15.3509 0014709 135.4154 224.8265 15.17685109131759
CubeBel-2 (EU11S)
1 57175U 23091K   25320.77804594  .00018715  00000-0  79292-3 0  9990
2 57175  97.5385  17.6237 0012061 138.1922 222.0238 15.23134294131903
SONATE-2
1 59112U 24043Q   25320.34198318  .00039213  00000-0  88065-3 0  9998
2 59112  97.5314  95.6498 0008784 260.8248  99.2006 15.43224941 94900
MO-122
1 60209U 24125G   25320.81925873  .00042607  00000-0  92403-3 0  9996
2 60209  97.2557 171.2093 0013839 282.2288  77.7410 15.44182161 76601
GRBBeta
1 60237U 24128C   25320.16751366  .00007819  00000-0  55195-3 0  9995
2 60237  61.9905 242.4856 0057006  91.1297 269.6327 15.04399211 74199
Curium One
1 60242U 24128H   25320.74605899  .00014750  00000-0  92430-3 0  9999
2 60242  61.9799 235.9344 0056831  88.1193 272.6408 15.08253987 74367
ROBUSTA-3A
1 60243U 24128J   25320.73876935  .00015212  00000-0  96862-3 0  9997
2 60243  61.9876 237.3835 0056769  85.6005 275.1571 15.07654872 74343
CatSat
1 60246U 24125J   25320.54114319  .00045506  00000-0  11850-2 0  9999
2 60246  97.2362 168.2477 0034060 241.4204 118.3613 15.38140942 74498
HYPERVIEW-1G (RS66S)
1 61772U 24199AP  25320.86008942  .00058873  00000-0  12306-2 0  9992
2 61772  97.3246 190.0193 0010657 347.9657  12.1336 15.45234224101616
AO-123
1 61781U 24199AY  25320.86532777  .00013713  00000-0  45504-3 0  9991
2 61781  97.3279 186.6086 0014916 356.0825   4.0297 15.31247060101381
ZIMSAT 2
1 61783U 24199BA  25320.87791534  .00181586  00000-0  19543-2 0  9999
2 61783  97.3153 192.7652 0007006 350.8456   9.2674 15.63104660104950
HADES-R (SO-124)
1 62690U 25009CK  25320.49803554  .00158751  00000-0  27493-2 0  9993
2 62690  97.3935  42.2888 0003043 249.9179 110.1745 15.50333370 46700
HYDRA-T
1 62692U 25009CM  25320.49946360  .00166660  00000-0  27803-2 0  9991
2 62692  97.3931  42.4387 0002807 247.6176 112.4779 15.51363789 46714
JINJUSat 1B
1 63210U 25052A   25320.22992571  .00024894  00000-0  98162-3 0  9991
2 63210  97.4213 212.5729 0005885 105.6526 254.5362 15.25542134 37547
NUSHSAT 1
1 63211U 25052B   25320.24182065  .00028880  00000-0  11084-2 0  9999
2 63211  97.4197 212.6735 0005746 107.7806 252.4060 15.26413590 37554
TEVEL2-4
1 63213U 25052D   25320.42857192  .00026964  00000-0  10536-2 0  9993
2 63213  97.4114 212.4643 0004605 115.2620 244.9096 15.25837315 37573
TEVEL2-5
1 63214U 25052E   25320.23611638  .00026737  00000-0  10469-2 0  9999
2 63214  97.4111 212.2650 0004600 117.5083 242.6623 15.25767746 37548
TEVEL2-6
1 63215U 25052F   25320.43935227  .00027003  00000-0  10585-2 0  9991
2 63215  97.4118 212.4547 0004618 116.0538 244.1176 15.25727818 37570
TEVEL2-1
1 63217U 25052H   25320.67342815  .00024064  00000-0  95234-3 0  9993
2 63217  97.4066 212.5191 0004327 125.2808 234.8835 15.25435061 37607
TEVEL2-3
1 63218U 25052J   25320.47617116  .00025604  00000-0  10127-2 0  9999
2 63218  97.4091 212.3284 0004307 126.9044 233.2589 15.25442522 37570
TEVEL2-2
1 63219U 25052K   25320.67421101  .00024526  00000-0  97051-3 0  9993
2 63219  97.4089 212.5198 0004259 126.6232 233.5398 15.25435762 37609
TEVEL2-9
1 63237U 25052AD  25320.21827690  .00024094  00000-0  99506-3 0  9993
2 63237  97.4153 211.8117 0007349 157.6021 202.5538 15.23986495 37500
TEVEL2-7
1 63238U 25052AE  25320.42673785  .00023908  00000-0  99105-3 0  9999
2 63238  97.4159 211.9971 0007457 157.1229 203.0341 15.23862198 37535
TEVEL2-8
1 63239U 25052AF  25320.43191643  .00024391  00000-0  10117-2 0  9991
2 63239  97.4157 211.9879 0007466 157.6483 202.5081 15.23835739 37534
HYDRA-W
1 63490U 25052BL  25320.43515826  .00089200  00000-0  24303-2 0  9995
2 63490  97.4083 213.9287 0009425 141.8669 218.3244 15.37098610 37679
HADES-ICM (SO-125)
1 63492U 25052BN  25320.20540620  .00082566  00000-0  23637-2 0  9999
2 63492  97.4097 213.4939 0009294 148.7865 211.3932 15.35581755 37620
Dragonfly
1 65729U 98067XH  25320.08689097  .00137570  00000-0  14351-2 0  9997
2 65729  51.6292 271.3148 0005012 133.0413 227.1002 15.63546890  8981
RSP-03
1 65732U 98067XL  25320.11141684  .00115143  00000-0  12836-2 0  9998
2 65732  51.6295 271.4798 0006478 109.9703 250.1989 15.61923957  8993
GHS-01
1 65733U 98067XM  25320.58112878  .00170419  00000-0  16767-2 0  9997
2 65733  51.6301 268.6184 0005809 134.5817 225.5653 15.64902815  9073
BOTAN
1 65942U 98067XP  25320.12951907  .00105993  00000-0  14231-2 0  9992
2 65942  51.6310 273.0997 0004675  83.2645 276.8878 15.57079826  5710
CEVROSAT1
1 98526C 25248E   25306.26352486  .00003971  00000+0  19360-3 0    07
2 98526  45.4084 255.8570 0001315 254.8982 118.2631 15.17600497    10
